SL-14 DEB, 45293

Orbit data source: Space-Track

SL-14 DEB, 45293 is space debris in LEO originally from a launch on Thu, 15 Aug 1991 UTC launched from the Plesetsk Missile And Space Complex (PKMTR). Debris objects in space refer to the collection of defunct objects orbiting the Earth. Examples of debris include non-operational satellites, rocket bodies, and fragments generated from explosions, collisions, or faulty payload assembly.

Loading next visibility...
Identifier
45293, 1991-056AF
Orbit
LEO
Country
Flag of CISCIS
Related business
Manufacturer
Unknown
Mission
Spacecraft
Bus & Motor
Unknown
Mass
Unknown
Launch date (UTC)
1991-08-15 (35 years ago)
Launch vehicle
Unknown
Launch site
Plesetsk Missile And Space Complex (PKMTR)
Object type
Payload
Rocket body
Debris
Shape & HBR
Unknown shape, 0.1 m
Radar Cross Section
Small (<0.1 m²)

Expand to show TLE details & history
Last TLE update: 18 hours ago

TLE from 18 hours ago
0 SL-14 DEB
1 45293U 91056AF  26237.41706874  .00043459  00000-0  84955-2 0  9999
2 45293  82.5147 235.5001 0074267 231.7294 127.7213 14.60891532329413
Epoch: 2026-08-25T10:00Z
TLE epoch observation values (Epoch: 2026-08-25T10:00:34.739Z)
Latitude
0.00002°
Longitude
111.67064°
Altitude
725.671 km
Speed
7.475 km/s
True Right ascension
15h 42m 00s
True Declination
0° 00' 00"
Sunlit
Object was in daylight at epoch
Visualization orbit readout
Latitude
Unknown
Longitude
Unknown
Altitude
Unknown
Speed
Unknown
Apparent Right ascension
Unknown
Apparent Declination
Unknown
Sunlit
N/A
Visualization observer readout
Local Sidereal Time
19:05:17
Azimuth
Unknown
Elevation
Unknown
Doppler factor
Unknown
Orbital elements
Apogee altitude
739.818 km
Perigee altitude
634.872 km
Semi-major axis
7,065.482 km
Eccentricity
0.00743
Inclination
82.5147°
RAAN
235.5001°
Arg. of periapsis
231.7294°
True anomaly
128.39065°
Mean anomaly
127.7213°
Eccentric anomaly
128.05636°
Mean motion
3.65452 °/min
Orbital period
98.51 mins
BSTAR
0.0084955
Loading maneuver chart data...
Computing Atmospheric mass density...
Loading historical data...
Loading historical data...
Loading historical data...
Loading historical data...
Loading historical data...
Loading historical data...
Loading historical data...

Documentation

Showing up to 5 results
|